Regional Weather Roundup
Issued by NWS

Home | Current Version | Previous Version | Graphics & Text | Print | Product List | Glossary On
Versions: 1 2 3 4 5 6 7 8 9 10 11 12 13 14 15 16 17 18 19 20 21 22 23 24 25 26 27 28 29 30 31 32 33 34 35 36 37 38 39 40 41 42 43 44 45 46 47 48 49 50
000
ASUS43 KLOT 271408
RWRIL

ILLINOIS REGIONAL WEATHER ROUNDUP
NATIONAL WEATHER SERVICE CHICAGO/ROMEOVILLE IL
900 AM CDT FRI MAY 27 2016

NOTE: "FAIR" INDICATES FEW OR NO CLOUDS BELOW 12,000 FEET WITH NO
SIGNIFICANT WEATHER AND/OR OBSTRUCTIONS TO VISIBILITY.

* THESE STATIONS ARE NOT UNDER NWS QUALITY CONTROL. THEY ALSO MAY NOT
  REPORT WEATHER SUCH AS PRECIPITATION OR FOG.

ILZ001-002-007-009-015-016-024-271500-
NORTHWEST ILLINOIS

CITY           SKY/WX    TMP DP  RH WIND       PRES   REMARKS
MOLINE         CLOUDY    70  64  81 S13G24    29.83F
STERLING*      CLOUDY    72  64  76 S7        29.87F
SAVANNA*       CLOUDY    69  64  85 SE7       29.86S
$$

ILZ003-004-008-010-011-017-018-271500-
NORTH CENTRAL ILLINOIS

CITY           SKY/WX    TMP DP  RH WIND       PRES   REMARKS
ROCKFORD       LGT RAIN  71  66  84 S9        29.90S
FREEPORT*      LGT RAIN  68  63  83 SE5       29.89F
ROCHELLE*      CLOUDY    71  66  85 S14       29.89S
DE KALB*       CLOUDY    72  67  85 S13       29.91F
$$

ILZ005-006-012>014-019>023-271500-
NORTHEAST ILLINOIS

CITY           SKY/WX    TMP DP  RH WIND       PRES   REMARKS
CHICAGO-OHARE  LGT RAIN  69  65  86 SW8       29.90R
CHICAGO-MIDWAY CLOUDY    73  64  73 SW12      29.91R
AURORA         CLOUDY    73  67  81 S9        29.90S
LANSING*       MOSUNNY   73  65  76 S14       29.93S
JOLIET*        CLOUDY    74  67  79 S10       29.91F
WAUKEGAN       CLOUDY    74  67  78 SW14      29.89R
DUPAGE AIRPORT CLOUDY    69  66  90 S9        29.90R
KANKAKEE*      CLOUDY    72  64  78 S12       29.94S
WHEELING       LGT RAIN  71  65  81 S12       29.91R
MORRIS*        CLOUDY    73  64  74 S12       29.90S
ROMEOVILLE*    CLOUDY    71  65  81 S9        29.91F
NORTHERLY ISL    N/A     71  62  73 S14         N/A
NORTHERLY ISL    N/A     71  62  73 S14         N/A
$$

LMZ740>746-271500-
SOUTHERN LAKE MICHIGAN

STATION/POSITION SKY/WX   TEMP    WIND        PRES    VSBY  WAVE
                          AIR SEA DIR/SP/G                  HT/PER
                          (F)     (DEG/KT/KT) (MB)    (MI)  (FT/S)
SOUTHERN BUOY              54 50  150/ 10/ 10 1012.2R         1
WILMETTE HARBOR            61 57  190/  6/  8   N/A           1
HARRISON CRIB              68     190/ 18/ 19   N/A
BURNHAM HARBOR             71     190/ 10/ 15   N/A
CALUMET HARBOR             69     190/ 10/ 14 1012.3R
BURNS HARBOR               69     190/ 11/ 15 1013.5F
MICHIGAN CITY              68     150/ 11/ 15   N/A
MICHIGAN CITY 6N           64 58  200/  6/  8   N/A           1/ 2
ST. JOSEPH                 65 61  190/  6/  8   N/A           1/ 2
$$

ILZ025>027-034>036-040-047-049-050-058-095>099-271500-
WEST-CENTRAL ILLINOIS

CITY           SKY/WX    TMP DP  RH WIND       PRES   REMARKS
QUINCY         LGT RAIN  68  65  90 S14G23    29.82F
GALESBURG*     CLOUDY    67  65  91 S9G16     29.84F
MACOMB*        PTSUNNY   68  66  93 S14       29.85S
JACKSONVILLE*  CLOUDY    70  66  88 SE12G17   29.87S
PITTSFIELD*    RAIN      69  67  93 S13       29.87R
$$

ILZ028>032-037-038-041>044-048-051>054-059>061-271500-
CENTRAL ILLINOIS

CITY           SKY/WX    TMP DP  RH WIND       PRES   REMARKS
PONTIAC        CLOUDY    73  67  83 S9        29.92F
BLOOMINGTON    PTSUNNY   72  68  87 S16       29.94R
DECATUR        MOSUNNY   72  65  78 S13       29.93F
PEORIA         CLOUDY    72  64  76 S16G24    29.87F
LACON*         CLOUDY    70  64  81 S9        29.87F
LINCOLN*       CLOUDY    71  67  86 S10G20    29.91S
SPRINGFIELD    CLOUDY    72  65  78 S20G25    29.90S
TAYLORVILLE    DRIZZLE   68  66  93 S12       29.92S
$$

ILZ033-039-045-046-055>057-062-063-271500-
EAST-CENTRAL ILLINOIS

CITY           SKY/WX    TMP DP  RH WIND       PRES   REMARKS
CHAMPAIGN      CLOUDY    70  64  81 S15       29.96R
RANTOUL*       CLOUDY    72  67  83 S13       29.96R
MATTOON        CLOUDY    71  64  78 S10       29.96F
PARIS*         CLOUDY    71  66  84 S5        29.98F
$$

ILZ079-100>102-271500-
SOUTHWEST ILLINOIS

CITY           SKY/WX    TMP DP  RH WIND       PRES   REMARKS
ALTON          LGT RAIN  66  64  94 SE12      29.90F
BELLEVILLE     LGT RAIN  68  68 100 E9        29.89F
CAHOKIA*       LGT RAIN  69  66  90 SE10G18   29.89F FOG
SPARTA*        DRIZZLE   66  65  98 SE8       29.94S
$$

ILZ064>066-069>071-074>076-080>082-084>086-088>090-092>094-271500-
SOUTH-CENTRAL ILLINOIS

CITY           SKY/WX    TMP DP  RH WIND       PRES   REMARKS
CARBONDALE     TSTM      66  64  93 SE6       29.95F FOG
CAIRO*         CLOUDY    67  67  97 N3        29.95F
EFFINGHAM*     LGT RAIN  67  67  99 SE8       29.97F
MARION         LGT RAIN  68  66  94 NE6       29.97R
MT. VERNON     CLOUDY    66  61  82 S3        29.97S
CENTRALIA*     LGT RAIN  67  66  99 SE9       29.94F
SALEM*         RAIN      67  65  92 SE8       29.96R
METROPOLIS*    CLOUDY    71  69  94 CALM      29.96F
$$

ILZ067-068-072-073-078-083-087-091-271500-
SOUTHEAST ILLINOIS

CITY           SKY/WX    TMP DP  RH WIND       PRES   REMARKS
LAWRENCEVILLE  PTSUNNY   72  67  84 S8        29.98S
FLORA*         PTSUNNY   69  66  90 SE6       29.97S
FAIRFIELD*     PTSUNNY   69  65  90 SE5       29.96S
HARRISBURG*    PTSUNNY   70  66  88 CALM      29.97S
ROBINSON*      CLOUDY    70  65  85 S6        29.99S
CARMI*         CLOUDY    71  67  89 S7        29.97S
$$

ABBREVIATIONS USED IN REMARKS
   TC - TEMPERATURE IN CELSIUS
  WCI - WIND CHILL INDEX
   HX - HEAT INDEX
  VSB - VISIBILITY
$$





USA.gov is the U.S. government's official web portal to all federal, state and local government web resources and services.